Погода в Василевичах

Беларусь     52°14′38″N   29°49′51″E
темп.,
°C
ветер,
м/с
пор.,
м/с
влажн.,
%
обл.,
%
осадки,
мм/ч
давл.,
гПа
погр.,
м
8 августа, пн
пн800:00+13ссв36950 0.0 1021110
03:00+12с37974 0.0 1022134
06:00+11с36975 0.0 1022122
09:00+17ссв46705 0.0 1022481
12:00+22с444885 0.0 10221267
15:00+24с444148 0.0 10211621
18:00+23с444453 0.0 10211540
21:00+16ссв357036 0.0 102271
9 августа, вт
вт900:00+14ссв3379100 0.0 102344
03:00+14с3474100 0.0 102386
06:00+14с3679100 0.0 1023130
09:00+18с465998 0.0 1023386
12:00+23с4542100 0.0 10221706
15:00+24ссв453899 0.0 10222167
18:00+24св444090 0.0 10212100
21:00+19ссв386085 0.0 1022200
10 августа, ср
ср1000:00+15ссв38741 0.0 1023154
03:00+14с387995 0.0 1022144
06:00+12ссв39845 0.0 1022164
09:00+18св4758100 0.0 1023415
12:00+23св5745100 0.0 10221631
15:00+24св5638100 0.0 10212338
18:00+22ссв4747100 0.0 1022725
21:00+19ссв51157100 0.0 1022409
11 августа, чт
чт1100:00+18ссв41161100 0.0 1022504
03:00+16ссв41175100 0.0 1022282
06:00+15св4127411 0.0 1022316
09:00+20св6115818 0.0 1022564
12:00+25всв68455 0.0 10221237
15:00+27всв79405 0.0 10211429
18:00+27всв67445 0.0 10211491
21:00+21св410654 0.0 1022257
12 августа, пт
пт1200:00+18св411765 0.0 1024222
03:00+16св39800 0.0 1023161
06:00+15всв39770 0.0 1024191
09:00+21всв58530 0.0 1024406
12:00+27всв56390 0.0 1024975
15:00+29св56330 0.0 10221281
18:00+28всв563750 0.0 10221109
21:00+21св41060100 0.0 1022193